Year,Month,Day,Hour,Minute,Value (Times are PST for temperature in C)
2012,06,30,00,00,14.20
2012,06,30,00,01,14.20
2012,06,30,00,02,14.20
2012,06,30,00,03,14.20
2012,06,30,00,04,14.20
2012,06,30,00,05,14.20
2012,06,30,00,06,14.20
2012,06,30,00,07,14.20
2012,06,30,00,08,14.30
2012,06,30,00,09,14.30
2012,06,30,00,10,14.30
2012,06,30,00,11,14.30
2012,06,30,00,12,14.30
2012,06,30,00,13,14.30
2012,06,30,00,14,14.30
2012,06,30,00,15,14.30
2012,06,30,00,16,14.30
2012,06,30,00,17,14.30
2012,06,30,00,18,14.30
2012,06,30,00,19,14.30
2012,06,30,00,20,14.30
2012,06,30,00,21,14.20
2012,06,30,00,22,14.10
2012,06,30,00,23,14.00
2012,06,30,00,24,14.00
2012,06,30,00,25,13.90
2012,06,30,00,26,13.90
2012,06,30,00,27,13.80
2012,06,30,00,28,13.70
2012,06,30,00,29,13.60
2012,06,30,00,30,13.60
2012,06,30,00,31,13.50
2012,06,30,00,32,13.50
2012,06,30,00,33,13.40
2012,06,30,00,34,13.40
2012,06,30,00,35,13.40
2012,06,30,00,36,13.40
2012,06,30,00,37,13.30
2012,06,30,00,38,13.30
2012,06,30,00,39,13.30
2012,06,30,00,40,13.20
2012,06,30,00,41,13.20
2012,06,30,00,42,13.20
2012,06,30,00,43,13.10
2012,06,30,00,44,13.10
2012,06,30,00,45,13.10
2012,06,30,00,46,13.10
2012,06,30,00,47,13.00
2012,06,30,00,48,13.00
2012,06,30,00,49,13.00
2012,06,30,00,50,13.00
2012,06,30,00,51,13.00
2012,06,30,00,52,13.00
2012,06,30,00,53,13.10
2012,06,30,00,54,13.10
2012,06,30,00,55,13.10
2012,06,30,00,56,13.10
2012,06,30,00,57,13.10
2012,06,30,00,58,13.10
2012,06,30,00,59,13.20
2012,06,30,01,00,13.20
2012,06,30,01,01,13.20
2012,06,30,01,02,13.20
2012,06,30,01,03,13.20
2012,06,30,01,04,13.30
2012,06,30,01,05,13.30
2012,06,30,01,06,13.30
2012,06,30,01,07,13.30
2012,06,30,01,08,13.40
2012,06,30,01,09,13.40
2012,06,30,01,10,13.40
2012,06,30,01,11,13.40
2012,06,30,01,12,13.50
2012,06,30,01,13,13.50
2012,06,30,01,14,13.50
2012,06,30,01,15,13.50
2012,06,30,01,16,13.60
2012,06,30,01,17,13.60
2012,06,30,01,18,13.60
2012,06,30,01,19,13.60
2012,06,30,01,20,13.70
2012,06,30,01,21,13.70
2012,06,30,01,22,13.70
2012,06,30,01,23,13.80
2012,06,30,01,24,13.80
2012,06,30,01,25,13.80
2012,06,30,01,26,13.80
2012,06,30,01,27,13.90
2012,06,30,01,28,13.90
2012,06,30,01,29,13.90
2012,06,30,01,30,13.90
2012,06,30,01,31,14.00
2012,06,30,01,32,14.00
2012,06,30,01,33,14.00
2012,06,30,01,34,14.00
2012,06,30,01,35,14.00
2012,06,30,01,36,14.10
2012,06,30,01,37,14.10
2012,06,30,01,38,14.10
2012,06,30,01,39,14.10
2012,06,30,01,40,14.00
2012,06,30,01,41,14.00
2012,06,30,01,42,13.90
2012,06,30,01,43,13.90
2012,06,30,01,44,13.90
2012,06,30,01,45,13.80
2012,06,30,01,46,13.80
2012,06,30,01,47,13.80
2012,06,30,01,48,13.80
2012,06,30,01,49,13.70
2012,06,30,01,50,13.70
2012,06,30,01,51,13.70
2012,06,30,01,52,13.60
2012,06,30,01,53,13.60
2012,06,30,01,54,13.60
2012,06,30,01,55,13.60
2012,06,30,01,56,13.60
2012,06,30,01,57,13.60
2012,06,30,01,58,13.60
2012,06,30,01,59,13.60
2012,06,30,02,00,13.70
2012,06,30,02,01,13.70
2012,06,30,02,02,13.70
2012,06,30,02,03,13.70
2012,06,30,02,04,13.70
2012,06,30,02,05,13.70
2012,06,30,02,06,13.70
2012,06,30,02,07,13.70
2012,06,30,02,08,13.70
2012,06,30,02,09,13.70
2012,06,30,02,10,13.70
2012,06,30,02,11,13.70
2012,06,30,02,12,13.70
2012,06,30,02,13,13.70
2012,06,30,02,14,13.70
2012,06,30,02,15,13.70
2012,06,30,02,16,13.70
2012,06,30,02,17,13.70
2012,06,30,02,18,13.70
2012,06,30,02,19,13.70
2012,06,30,02,20,13.70
2012,06,30,02,21,13.70
2012,06,30,02,22,13.70
2012,06,30,02,23,13.70
2012,06,30,02,24,13.70
2012,06,30,02,25,13.70
2012,06,30,02,26,13.70
2012,06,30,02,27,13.60
2012,06,30,02,28,13.50
2012,06,30,02,29,13.50
2012,06,30,02,30,13.40
2012,06,30,02,31,13.30
2012,06,30,02,32,13.30
2012,06,30,02,33,13.20
2012,06,30,02,34,13.10
2012,06,30,02,35,13.00
2012,06,30,02,36,13.00
2012,06,30,02,37,12.90
2012,06,30,02,38,12.80
2012,06,30,02,39,12.80
2012,06,30,02,40,12.70
2012,06,30,02,41,12.60
2012,06,30,02,42,12.50
2012,06,30,02,43,12.50
2012,06,30,02,44,12.40
2012,06,30,02,45,12.40
2012,06,30,02,46,12.40
2012,06,30,02,47,12.40
2012,06,30,02,48,12.40
2012,06,30,02,49,12.30
2012,06,30,02,50,12.30
2012,06,30,02,51,12.30
2012,06,30,02,52,12.30
2012,06,30,02,53,12.30
2012,06,30,02,54,12.30
2012,06,30,02,55,12.30
2012,06,30,02,56,12.30
2012,06,30,02,57,12.30
2012,06,30,02,58,12.30
2012,06,30,02,59,12.30
2012,06,30,03,00,12.30
2012,06,30,03,01,12.30
2012,06,30,03,02,12.30
2012,06,30,03,03,12.30
2012,06,30,03,04,12.30
2012,06,30,03,05,12.20
2012,06,30,03,06,12.20
2012,06,30,03,07,12.20
2012,06,30,03,08,12.20
2012,06,30,03,09,12.20
2012,06,30,03,10,12.20
2012,06,30,03,11,12.20
2012,06,30,03,12,12.20
2012,06,30,03,13,12.30
2012,06,30,03,14,12.30
2012,06,30,03,15,12.30
2012,06,30,03,16,12.30
2012,06,30,03,17,12.30
2012,06,30,03,18,12.30
2012,06,30,03,19,12.30
2012,06,30,03,20,12.40
2012,06,30,03,21,12.40
2012,06,30,03,22,12.40
2012,06,30,03,23,12.40
2012,06,30,03,24,12.40
2012,06,30,03,25,12.40
2012,06,30,03,26,12.40
2012,06,30,03,27,12.40
2012,06,30,03,28,12.40
2012,06,30,03,29,12.40
2012,06,30,03,30,12.40
2012,06,30,03,31,12.40
2012,06,30,03,32,12.40
2012,06,30,03,33,12.40
2012,06,30,03,34,12.40
2012,06,30,03,35,12.50
2012,06,30,03,36,12.50
2012,06,30,03,37,12.60
2012,06,30,03,38,12.60
2012,06,30,03,39,12.60
2012,06,30,03,40,12.60
2012,06,30,03,41,12.70
2012,06,30,03,42,12.70
2012,06,30,03,43,12.70
2012,06,30,03,44,12.80
2012,06,30,03,45,12.80
2012,06,30,03,46,12.80
2012,06,30,03,47,12.80
2012,06,30,03,48,12.80
2012,06,30,03,49,12.90
2012,06,30,03,50,13.00
2012,06,30,03,51,13.00
2012,06,30,03,52,13.00
2012,06,30,03,53,13.10
2012,06,30,03,54,13.10
2012,06,30,03,55,13.10
2012,06,30,03,56,13.10
2012,06,30,03,57,13.10
2012,06,30,03,58,13.00
2012,06,30,03,59,13.00
2012,06,30,04,00,12.90
2012,06,30,04,01,12.90
2012,06,30,04,02,12.90
2012,06,30,04,03,12.90
2012,06,30,04,04,12.90
2012,06,30,04,05,12.90
2012,06,30,04,06,12.90
2012,06,30,04,07,12.90
2012,06,30,04,08,12.80
2012,06,30,04,09,12.80
2012,06,30,04,10,12.80
2012,06,30,04,11,12.80
2012,06,30,04,12,12.80
2012,06,30,04,13,12.70
2012,06,30,04,14,12.70
2012,06,30,04,15,12.70
2012,06,30,04,16,12.60
2012,06,30,04,17,12.60
2012,06,30,04,18,12.60
2012,06,30,04,19,12.50
2012,06,30,04,20,12.50
2012,06,30,04,21,12.40
2012,06,30,04,22,12.40
2012,06,30,04,23,12.40
2012,06,30,04,24,12.30
2012,06,30,04,25,12.30
2012,06,30,04,26,12.20
2012,06,30,04,27,12.20
2012,06,30,04,28,12.20
2012,06,30,04,29,12.20
2012,06,30,04,30,12.20
2012,06,30,04,31,12.20
2012,06,30,04,32,12.30
2012,06,30,04,33,12.30
2012,06,30,04,34,12.30
2012,06,30,04,35,12.30
2012,06,30,04,36,12.30
2012,06,30,04,37,12.30
2012,06,30,04,38,12.30
2012,06,30,04,39,12.20
2012,06,30,04,40,12.20
2012,06,30,04,41,12.20
2012,06,30,04,42,12.20
2012,06,30,04,43,12.20
2012,06,30,04,44,12.20
2012,06,30,04,45,12.20
2012,06,30,04,46,12.20
2012,06,30,04,47,12.20
2012,06,30,04,48,12.20
2012,06,30,04,49,12.20
2012,06,30,04,50,12.20
2012,06,30,04,51,12.20
2012,06,30,04,52,12.20
2012,06,30,04,53,12.20
2012,06,30,04,54,12.20
2012,06,30,04,55,12.20
2012,06,30,04,56,12.20
2012,06,30,04,57,12.20
2012,06,30,04,58,12.30
2012,06,30,04,59,12.30
2012,06,30,05,00,12.30
2012,06,30,05,01,12.20
2012,06,30,05,02,12.20
2012,06,30,05,03,12.20
2012,06,30,05,04,12.20
2012,06,30,05,05,12.30
2012,06,30,05,06,12.30
2012,06,30,05,07,12.30
2012,06,30,05,08,12.30
2012,06,30,05,09,12.30
2012,06,30,05,10,12.30
2012,06,30,05,11,12.30
2012,06,30,05,12,12.30
2012,06,30,05,13,12.30
2012,06,30,05,14,12.30
2012,06,30,05,15,12.30
2012,06,30,05,16,12.30
2012,06,30,05,17,12.30
2012,06,30,05,18,12.30
2012,06,30,05,19,12.30
2012,06,30,05,20,12.30
2012,06,30,05,21,12.20
2012,06,30,05,22,12.20
2012,06,30,05,23,12.20
2012,06,30,05,24,12.10
2012,06,30,05,25,12.10
2012,06,30,05,26,12.10
2012,06,30,05,27,12.10
2012,06,30,05,28,12.10
2012,06,30,05,29,12.10
2012,06,30,05,30,12.10
2012,06,30,05,31,12.10
2012,06,30,05,32,12.10
2012,06,30,05,33,12.00
2012,06,30,05,34,12.00
2012,06,30,05,35,12.00
2012,06,30,05,36,12.00
2012,06,30,05,37,12.00
2012,06,30,05,38,11.90
2012,06,30,05,39,11.90
2012,06,30,05,40,11.90
2012,06,30,05,41,11.90
2012,06,30,05,42,11.90
2012,06,30,05,43,11.90
2012,06,30,05,44,11.90
2012,06,30,05,45,11.90
2012,06,30,05,46,11.90
2012,06,30,05,47,11.90
2012,06,30,05,48,11.90
2012,06,30,05,49,11.90
2012,06,30,05,50,11.90
2012,06,30,05,51,11.90
2012,06,30,05,52,11.90
2012,06,30,05,53,11.90
2012,06,30,05,54,12.00
2012,06,30,05,55,11.90
2012,06,30,05,56,11.90
2012,06,30,05,57,11.90
2012,06,30,05,58,11.90
2012,06,30,05,59,11.90
2012,06,30,06,00,12.00
2012,06,30,06,01,12.00
2012,06,30,06,02,12.00
2012,06,30,06,03,12.10
2012,06,30,06,04,12.10
2012,06,30,06,05,12.10
2012,06,30,06,06,12.20
2012,06,30,06,07,12.20
2012,06,30,06,08,12.20
2012,06,30,06,09,12.20
2012,06,30,06,10,12.30
2012,06,30,06,11,12.30
2012,06,30,06,12,12.30
2012,06,30,06,13,12.30
2012,06,30,06,14,12.30
2012,06,30,06,15,12.30
2012,06,30,06,16,12.30
2012,06,30,06,17,12.30
2012,06,30,06,18,12.20
2012,06,30,06,19,12.20
2012,06,30,06,20,12.20
2012,06,30,06,21,12.20
2012,06,30,06,22,12.10
2012,06,30,06,23,12.10
2012,06,30,06,24,12.10
2012,06,30,06,25,12.10
2012,06,30,06,26,12.10
2012,06,30,06,27,12.10
2012,06,30,06,28,12.10
2012,06,30,15,18,15.40
2012,06,30,15,19,15.40
2012,06,30,15,21,15.70
2012,06,30,15,29,16.00
2012,06,30,15,30,16.00
2012,06,30,15,34,15.70
2012,06,30,15,35,15.60
2012,06,30,15,36,15.60
2012,06,30,15,37,15.60
2012,06,30,15,38,15.60
2012,06,30,15,39,15.60
2012,06,30,15,40,15.60
2012,06,30,15,41,15.60
2012,06,30,15,42,15.60
2012,06,30,15,43,15.60
2012,06,30,15,44,15.60
2012,06,30,15,45,15.60
2012,06,30,15,46,15.60
2012,06,30,15,47,15.60
2012,06,30,15,48,15.60
2012,06,30,15,49,15.70
2012,06,30,15,50,15.70
2012,06,30,15,51,15.70
2012,06,30,15,52,15.80
2012,06,30,15,53,15.80
2012,06,30,15,54,15.80
2012,06,30,15,55,15.70
2012,06,30,15,56,15.70
2012,06,30,15,57,15.80
2012,06,30,15,58,15.80
2012,06,30,15,59,15.80
2012,06,30,16,00,15.90
2012,06,30,16,01,15.90
2012,06,30,16,02,15.90
2012,06,30,16,03,15.90
2012,06,30,16,04,15.90
2012,06,30,16,05,15.90
2012,06,30,16,06,15.90
2012,06,30,16,07,15.80
2012,06,30,16,08,15.80
2012,06,30,16,09,15.80
2012,06,30,16,10,15.80
2012,06,30,16,11,15.90
2012,06,30,16,12,15.90
2012,06,30,16,13,15.90
2012,06,30,16,14,15.90
2012,06,30,16,15,15.90
2012,06,30,16,16,15.90
2012,06,30,16,17,15.90
2012,06,30,16,18,15.90
2012,06,30,16,19,16.00
2012,06,30,16,20,16.00
2012,06,30,16,21,16.10
2012,06,30,16,22,16.10
2012,06,30,16,23,16.10
2012,06,30,16,24,16.20
2012,06,30,16,25,16.20
2012,06,30,16,26,16.20
2012,06,30,16,27,16.20
2012,06,30,16,28,16.20
2012,06,30,16,29,16.20
2012,06,30,16,30,16.20
2012,06,30,16,31,16.10
2012,06,30,16,32,16.00
2012,06,30,16,33,16.00
2012,06,30,16,34,15.80
2012,06,30,16,35,15.70
2012,06,30,16,36,15.70
2012,06,30,16,37,15.60
2012,06,30,16,38,15.60
2012,06,30,16,39,15.60
2012,06,30,16,40,15.60
2012,06,30,16,41,15.60
2012,06,30,16,42,15.60
2012,06,30,16,43,15.60
2012,06,30,16,44,15.70
2012,06,30,16,45,15.70
2012,06,30,16,46,15.80
2012,06,30,16,47,15.80
2012,06,30,16,48,15.80
2012,06,30,16,49,15.90
2012,06,30,16,50,15.90
2012,06,30,16,51,15.90
2012,06,30,16,52,15.90
2012,06,30,16,53,15.90
2012,06,30,16,54,16.00
2012,06,30,16,55,16.00
2012,06,30,16,56,16.00
2012,06,30,16,57,16.00
2012,06,30,16,58,16.00
2012,06,30,16,59,16.00
2012,06,30,17,00,16.00
2012,06,30,17,01,16.00
2012,06,30,17,02,16.00
2012,06,30,17,03,16.00
2012,06,30,17,04,15.90
2012,06,30,17,05,15.90
2012,06,30,17,06,15.90
2012,06,30,17,07,15.90
2012,06,30,17,08,15.90
2012,06,30,17,09,15.90
2012,06,30,17,10,15.90
2012,06,30,17,11,15.90
2012,06,30,17,12,15.90
2012,06,30,17,13,15.90
2012,06,30,17,14,15.90
2012,06,30,17,15,15.90
2012,06,30,17,16,15.90
2012,06,30,17,17,15.90
2012,06,30,17,18,15.90
2012,06,30,17,19,15.90
2012,06,30,17,20,15.90
2012,06,30,17,21,16.00
2012,06,30,17,22,16.00
2012,06,30,17,23,16.10
2012,06,30,17,24,16.10
2012,06,30,17,25,16.10
2012,06,30,17,26,16.20
2012,06,30,17,27,16.20
2012,06,30,17,28,16.30
2012,06,30,17,29,16.30
2012,06,30,17,30,16.20
2012,06,30,17,31,16.00
2012,06,30,17,32,15.70
2012,06,30,17,33,15.50
2012,06,30,17,34,15.30
2012,06,30,17,35,15.10
2012,06,30,17,36,15.00
2012,06,30,17,37,15.00
2012,06,30,17,38,14.80
2012,06,30,17,39,14.70
2012,06,30,17,40,14.70
2012,06,30,17,41,14.70
2012,06,30,17,42,14.70
2012,06,30,17,43,14.80
2012,06,30,17,44,14.80
2012,06,30,17,45,15.00
2012,06,30,17,46,15.00
2012,06,30,17,47,15.00
2012,06,30,17,48,15.20
2012,06,30,17,49,15.30
2012,06,30,17,50,15.40
2012,06,30,17,51,15.50
2012,06,30,17,52,15.60
2012,06,30,17,53,15.70
2012,06,30,17,54,15.80
2012,06,30,17,55,15.80
2012,06,30,17,56,15.90
2012,06,30,17,57,15.90
2012,06,30,17,58,16.00
2012,06,30,17,59,16.00
2012,06,30,18,00,16.10
2012,06,30,18,01,16.10
2012,06,30,18,02,15.90
2012,06,30,18,03,15.70
2012,06,30,18,04,15.60
2012,06,30,18,05,15.40
2012,06,30,18,06,15.30
2012,06,30,18,07,15.20
2012,06,30,18,08,15.00
2012,06,30,18,09,15.00
2012,06,30,18,10,15.00
2012,06,30,18,11,15.00
2012,06,30,18,12,15.00
2012,06,30,18,13,15.00
2012,06,30,18,14,15.00
2012,06,30,18,15,15.00
2012,06,30,18,16,15.00
2012,06,30,18,17,15.00
2012,06,30,18,18,15.10
2012,06,30,18,19,15.20
2012,06,30,18,20,15.30
2012,06,30,18,21,15.40
2012,06,30,18,22,15.50
2012,06,30,18,23,15.60
2012,06,30,18,24,15.60
2012,06,30,18,25,15.70
2012,06,30,18,26,15.80
2012,06,30,18,27,15.80
2012,06,30,18,28,15.80
2012,06,30,18,29,15.70
2012,06,30,18,30,15.70
2012,06,30,18,31,15.70
2012,06,30,18,32,15.70
2012,06,30,18,33,15.60
2012,06,30,18,34,15.60
2012,06,30,18,35,15.60
2012,06,30,18,36,15.50
2012,06,30,18,37,15.50
2012,06,30,18,38,15.50
2012,06,30,18,39,15.40
2012,06,30,18,40,15.40
2012,06,30,18,41,15.40
2012,06,30,18,42,15.40
2012,06,30,18,43,15.40
2012,06,30,18,44,15.40
2012,06,30,18,45,15.40
2012,06,30,18,46,15.40
2012,06,30,18,47,15.30
2012,06,30,18,48,15.30
2012,06,30,18,49,15.30
2012,06,30,18,50,15.30
2012,06,30,18,51,15.30
2012,06,30,18,52,15.30
2012,06,30,18,53,15.30
2012,06,30,18,54,15.40
2012,06,30,18,55,15.50
2012,06,30,18,56,15.50
2012,06,30,18,57,15.60
2012,06,30,18,58,15.70
2012,06,30,18,59,15.80
2012,06,30,19,00,15.80
2012,06,30,19,01,15.80
2012,06,30,19,02,15.90
2012,06,30,19,03,16.00
2012,06,30,19,04,16.00
2012,06,30,19,05,15.90
2012,06,30,19,06,15.70
2012,06,30,19,07,15.50
2012,06,30,19,08,15.30
2012,06,30,19,09,15.20
2012,06,30,19,10,15.00
2012,06,30,19,11,15.00
2012,06,30,19,12,15.00
2012,06,30,19,13,15.00
2012,06,30,19,14,15.00
2012,06,30,19,15,15.00
2012,06,30,19,16,15.00
2012,06,30,19,17,15.00
2012,06,30,19,18,15.00
2012,06,30,19,19,15.00
2012,06,30,19,20,15.00
2012,06,30,19,21,15.00
2012,06,30,19,22,15.10
2012,06,30,19,23,15.20
2012,06,30,19,24,15.30
2012,06,30,19,25,15.30
2012,06,30,19,26,15.30
2012,06,30,19,27,15.30
2012,06,30,19,28,15.30
2012,06,30,19,29,15.30
2012,06,30,19,30,15.30
2012,06,30,19,31,15.20
2012,06,30,19,32,15.20
2012,06,30,19,33,15.10
2012,06,30,19,34,15.00
2012,06,30,19,35,15.00
2012,06,30,19,36,15.00
2012,06,30,19,37,15.00
2012,06,30,19,38,15.00
2012,06,30,19,39,15.00
2012,06,30,19,40,15.00
2012,06,30,19,41,15.00
2012,06,30,19,42,14.90
2012,06,30,19,43,14.70
2012,06,30,19,44,14.60
2012,06,30,19,45,14.50
2012,06,30,19,46,14.50
2012,06,30,19,47,14.40
2012,06,30,19,48,14.30
2012,06,30,19,49,14.20
2012,06,30,19,50,14.20
2012,06,30,19,51,14.10
2012,06,30,19,52,14.00
2012,06,30,19,53,14.00
2012,06,30,19,54,14.00
2012,06,30,19,55,13.90
2012,06,30,19,56,13.90
2012,06,30,19,57,13.90
2012,06,30,19,58,13.90
2012,06,30,19,59,13.90
2012,06,30,20,00,13.90
2012,06,30,20,01,13.90
2012,06,30,20,02,13.90
2012,06,30,20,03,13.80
2012,06,30,20,04,13.80
2012,06,30,20,05,13.80
2012,06,30,20,06,13.80
2012,06,30,20,07,13.70
2012,06,30,20,08,13.70
2012,06,30,20,09,13.60
2012,06,30,20,10,13.60
2012,06,30,20,11,13.60
2012,06,30,20,12,13.60
2012,06,30,20,13,13.60
2012,06,30,20,14,13.50
2012,06,30,20,15,13.50
2012,06,30,20,16,13.50
2012,06,30,20,17,13.50
2012,06,30,20,18,13.50
2012,06,30,20,19,13.50
2012,06,30,20,20,13.60
2012,06,30,20,21,13.60
2012,06,30,20,22,13.60
2012,06,30,20,23,13.60
2012,06,30,20,24,13.70
2012,06,30,20,25,13.70
2012,06,30,20,26,13.80
2012,06,30,20,27,13.80
2012,06,30,20,28,13.80
2012,06,30,20,29,13.80
2012,06,30,20,30,13.90
2012,06,30,20,31,13.90
2012,06,30,20,32,13.90
2012,06,30,20,33,14.00
2012,06,30,20,34,14.00
2012,06,30,20,35,14.10
2012,06,30,20,36,14.10
2012,06,30,20,37,14.20
2012,06,30,20,38,14.30
2012,06,30,20,39,14.30
2012,06,30,20,40,14.40
2012,06,30,20,41,14.50
2012,06,30,20,42,14.60
2012,06,30,20,43,14.60
2012,06,30,20,44,14.70
2012,06,30,20,45,14.70
2012,06,30,20,46,14.70
2012,06,30,20,47,14.70
2012,06,30,20,48,14.70
2012,06,30,20,49,14.60
2012,06,30,20,50,14.60
2012,06,30,20,51,14.60
2012,06,30,20,52,14.60
2012,06,30,20,53,14.50
2012,06,30,20,54,14.50
2012,06,30,20,55,14.50
2012,06,30,20,56,14.40
2012,06,30,20,57,14.40
2012,06,30,20,58,14.40
2012,06,30,20,59,14.40
2012,06,30,21,00,14.30
2012,06,30,21,01,14.30
2012,06,30,21,02,14.30
2012,06,30,21,03,14.30
2012,06,30,21,04,14.30
2012,06,30,21,05,14.30
2012,06,30,21,06,14.30
2012,06,30,21,07,14.20
2012,06,30,21,08,14.20
2012,06,30,21,09,14.20
2012,06,30,21,10,14.20
2012,06,30,21,11,14.20
2012,06,30,21,12,14.20
2012,06,30,21,13,14.20
2012,06,30,21,14,14.30
2012,06,30,21,15,14.30
2012,06,30,21,16,14.30
2012,06,30,21,17,14.30
2012,06,30,21,18,14.30
2012,06,30,21,19,14.30
2012,06,30,21,20,14.30
2012,06,30,21,21,14.20
2012,06,30,21,22,14.20
2012,06,30,21,23,14.20
2012,06,30,21,24,14.20
2012,06,30,21,25,14.10
2012,06,30,21,26,13.90
2012,06,30,21,27,13.90
2012,06,30,21,28,13.80
2012,06,30,21,29,13.80
2012,06,30,21,30,13.80
2012,06,30,21,31,13.70
2012,06,30,21,32,13.70
2012,06,30,21,33,13.70
2012,06,30,21,34,13.70
2012,06,30,21,35,13.70
2012,06,30,21,36,13.70
2012,06,30,21,37,13.70
2012,06,30,21,38,13.70
2012,06,30,21,39,13.70
2012,06,30,21,40,13.60
2012,06,30,21,41,13.60
2012,06,30,21,42,13.60
2012,06,30,21,43,13.60
2012,06,30,21,44,13.60
2012,06,30,21,45,13.60
2012,06,30,21,46,13.60
2012,06,30,21,47,13.60
2012,06,30,21,48,13.60
2012,06,30,21,49,13.60
2012,06,30,21,50,13.60
2012,06,30,21,51,13.60
2012,06,30,21,52,13.60
2012,06,30,21,53,13.70
2012,06,30,21,54,13.70
2012,06,30,21,55,13.70
2012,06,30,21,56,13.70
2012,06,30,21,57,13.70
2012,06,30,21,58,13.70
2012,06,30,21,59,13.80
2012,06,30,22,00,13.80
2012,06,30,22,01,13.90
2012,06,30,22,02,13.90
2012,06,30,22,03,14.00
2012,06,30,22,04,14.10
2012,06,30,22,05,14.10
2012,06,30,22,06,14.20
2012,06,30,22,07,14.30
2012,06,30,22,08,14.40
2012,06,30,22,09,14.40
2012,06,30,22,10,14.50
2012,06,30,22,11,14.50
2012,06,30,22,12,14.50
2012,06,30,22,13,14.50
2012,06,30,22,14,14.60
2012,06,30,22,15,14.60
2012,06,30,22,16,14.60
2012,06,30,22,17,14.60
2012,06,30,22,18,14.60
2012,06,30,22,19,14.60
2012,06,30,22,20,14.60
2012,06,30,22,21,14.60
2012,06,30,22,22,14.50
2012,06,30,22,23,14.60
2012,06,30,22,24,14.60
2012,06,30,22,25,14.60
2012,06,30,22,26,14.60
2012,06,30,22,27,14.60
2012,06,30,22,28,14.60
2012,06,30,22,29,14.60
2012,06,30,22,30,14.60
2012,06,30,22,31,14.60
2012,06,30,22,32,14.60
2012,06,30,22,33,14.60
2012,06,30,22,34,14.60
2012,06,30,22,35,14.60
2012,06,30,22,36,14.70
2012,06,30,22,37,14.70
2012,06,30,22,38,14.70
2012,06,30,22,39,14.70
2012,06,30,22,40,14.70
2012,06,30,22,41,14.60
2012,06,30,22,42,14.60
2012,06,30,22,43,14.60
2012,06,30,22,44,14.60
2012,06,30,22,45,14.60
2012,06,30,22,46,14.60
2012,06,30,22,47,14.60
2012,06,30,22,48,14.60
2012,06,30,22,49,14.60
2012,06,30,22,50,14.60
2012,06,30,22,51,14.60
2012,06,30,22,52,14.70
2012,06,30,22,53,14.70
2012,06,30,22,54,14.70
2012,06,30,22,55,14.70
2012,06,30,22,56,14.70
2012,06,30,22,57,14.70
2012,06,30,22,58,14.80
2012,06,30,22,59,14.80
2012,06,30,23,00,14.80
2012,06,30,23,01,14.80
2012,06,30,23,02,14.80
2012,06,30,23,03,14.80
2012,06,30,23,04,14.80
2012,06,30,23,05,14.80
2012,06,30,23,06,14.80
2012,06,30,23,07,14.80
2012,06,30,23,08,14.80
2012,06,30,23,09,14.80
2012,06,30,23,10,14.80
2012,06,30,23,11,14.80
2012,06,30,23,12,14.80
2012,06,30,23,13,14.80
2012,06,30,23,14,14.80
2012,06,30,23,15,14.70
2012,06,30,23,16,14.70
2012,06,30,23,17,14.70
2012,06,30,23,18,14.70
2012,06,30,23,19,14.70
2012,06,30,23,20,14.70
2012,06,30,23,21,14.60
2012,06,30,23,22,14.60
2012,06,30,23,23,14.60
2012,06,30,23,24,14.60
2012,06,30,23,25,14.60
2012,06,30,23,26,14.60
2012,06,30,23,27,14.60
2012,06,30,23,28,14.50
2012,06,30,23,29,14.50
2012,06,30,23,30,14.50
2012,06,30,23,31,14.40
2012,06,30,23,32,14.40
2012,06,30,23,33,14.40
2012,06,30,23,34,14.40
2012,06,30,23,35,14.30
2012,06,30,23,36,14.30
2012,06,30,23,37,14.30
2012,06,30,23,38,14.30
2012,06,30,23,39,14.30
2012,06,30,23,40,14.30
2012,06,30,23,41,14.30
2012,06,30,23,42,14.30
2012,06,30,23,43,14.20
2012,06,30,23,44,14.20
2012,06,30,23,45,14.20
2012,06,30,23,46,14.20
2012,06,30,23,47,14.20
2012,06,30,23,48,14.20
2012,06,30,23,49,14.20
2012,06,30,23,50,14.20
2012,06,30,23,51,14.10
2012,06,30,23,52,14.10
2012,06,30,23,53,14.10
2012,06,30,23,54,14.10
2012,06,30,23,55,14.10
2012,06,30,23,56,14.10
2012,06,30,23,57,14.10
2012,06,30,23,58,14.10
2012,06,30,23,59,14.10
